Date String (YYYY-MM-DD hh:mm:ss) UTC,Instrument flags,Ambient pressure (hPa),Sample flow (lpm),Bypass flow (lpm),Sample temperature (°C),Ambient temperature (°C),ASC tube jacket temperature (°C),LED temperature (°C),Box temperature (°C),Sample RH (%),Span deviation,Mass concentration (μg/m³),Mass concentration (μg/m³),Mass concentration (μg/m³)
DateTimeUTC,F1_M11,P_M11,Q1_M11,Q2_M11,T1_M11,T2_M11,T3_M11,T4_M11,T5_M11,U1_M11,ZSPAN_M11,X0_M11,X2_M11,X1_M11
2022-06-19 05:00:00,,0823.7,5.01,0.00,29.4,28.2,00.0,38.1,31.3,22.0,0000.0,0008.37,0004.32,0003.41
2022-06-19 05:01:00,,0823.7,5.01,0.00,29.4,28.3,00.0,38.2,31.3,22.0,0000.0,0008.55,0004.38,0003.42
2022-06-19 05:02:00,,0823.7,5.01,0.00,29.4,28.4,00.0,38.2,31.4,22.0,0000.0,0008.30,0004.36,0003.41
2022-06-19 05:03:00,,0823.6,5.00,0.00,29.4,28.5,00.0,38.2,31.4,21.9,0000.0,0008.46,0004.41,0003.43
2022-06-19 05:04:00,,0823.6,4.99,0.00,29.5,28.5,00.0,38.2,31.4,21.8,0000.0,0008.56,0004.41,0003.42
2022-06-19 05:05:00,,0823.7,5.01,0.00,29.5,28.6,00.0,38.2,31.5,21.8,0000.0,0008.63,0004.42,0003.40
2022-06-19 05:06:00,,0823.7,5.00,0.00,29.5,28.6,00.0,38.2,31.5,21.8,0000.0,0008.58,0004.43,0003.39
2022-06-19 05:07:00,,0823.6,5.00,0.00,29.5,28.0,00.0,38.2,31.3,21.8,0000.0,0008.61,0004.44,0003.39
2022-06-19 05:08:00,,0823.7,5.00,0.00,29.5,27.6,00.0,38.2,31.2,21.8,0000.0,0008.81,0004.48,0003.38
2022-06-19 05:09:00,,0823.7,5.01,0.00,29.4,27.5,00.0,38.2,31.2,21.8,0000.0,0009.04,0004.47,0003.36
2022-06-19 05:10:00,,0823.7,5.00,0.00,29.4,27.5,00.0,38.2,31.2,21.8,0000.0,0009.14,0004.46,0003.33
2022-06-19 05:11:00,,0823.7,5.00,0.00,29.3,27.6,00.0,38.2,31.2,21.8,0000.0,0009.03,0004.44,0003.30
2022-06-19 05:12:00,,0823.7,4.99,0.00,29.3,27.7,00.0,38.2,31.2,21.8,0000.0,0009.00,0004.41,0003.27
2022-06-19 05:13:00,,0823.7,4.99,0.00,29.3,27.9,00.0,38.2,31.2,21.9,0000.0,0008.98,0004.39,0003.24
2022-06-19 05:14:00,,0823.7,5.02,0.00,29.3,28.0,00.0,38.2,31.3,21.9,0000.0,0009.06,0004.37,0003.20
2022-06-19 05:15:00,,0823.7,5.00,0.00,29.4,28.1,00.0,38.2,31.3,21.9,0000.0,0009.07,0004.37,0003.16
2022-06-19 05:16:00,,0823.7,5.00,0.00,29.4,28.2,00.0,38.2,31.3,21.9,0000.0,0009.09,0004.36,0003.14
2022-06-19 05:17:00,,0823.8,5.00,0.00,29.4,28.3,00.0,38.2,31.3,21.9,0000.0,0009.30,0004.32,0003.10
2022-06-19 05:18:00,,0823.8,5.00,0.00,29.4,28.4,00.0,38.2,31.4,21.9,0000.0,0010.22,0004.39,0003.08
2022-06-19 05:19:00,,0823.8,5.01,0.00,29.4,28.4,00.0,38.2,31.4,21.9,0000.0,0010.55,0004.39,0003.04
2022-06-19 05:20:00,,0823.8,5.00,0.00,29.5,28.5,00.0,38.2,31.4,21.9,0000.0,0010.39,0004.36,0002.99
2022-06-19 05:21:00,,0823.8,5.00,0.00,29.5,28.6,00.0,38.3,31.5,21.9,0000.0,0010.09,0004.27,0002.97
2022-06-19 05:22:00,,0823.9,5.00,0.00,29.5,28.6,00.0,38.3,31.5,21.9,0000.0,0010.08,0004.25,0002.95
2022-06-19 05:23:00,,0823.9,5.00,0.00,29.5,28.7,00.0,38.3,31.5,21.9,0000.0,0010.08,0004.25,0002.91
2022-06-19 05:24:00,,0824.0,5.00,0.00,29.6,28.5,00.0,38.3,31.5,21.9,0000.0,0010.19,0004.24,0002.86
2022-06-19 05:25:00,,0823.9,5.01,0.00,29.5,27.8,00.0,38.2,31.3,21.9,0000.0,0010.16,0004.20,0002.84
2022-06-19 05:26:00,,0823.9,5.00,0.00,29.5,27.5,00.0,38.2,31.2,22.0,0000.0,0010.37,0004.22,0002.82
2022-06-19 05:27:00,,0823.9,5.00,0.00,29.4,27.5,00.0,38.2,31.2,22.0,0000.0,0010.42,0004.20,0002.78
2022-06-19 05:28:00,,0823.9,5.00,0.00,29.4,27.6,00.0,38.2,31.2,22.1,0000.0,0010.58,0004.21,0002.76
2022-06-19 05:29:00,,0824.0,4.99,0.00,29.4,27.7,00.0,38.2,31.2,22.1,0000.0,0009.64,0004.09,0002.71
2022-06-19 05:30:00,,0824.0,5.01,0.00,29.4,27.8,00.0,38.2,31.3,22.1,0000.0,0009.07,0003.98,0002.71
2022-06-19 05:31:00,,0823.9,4.99,0.00,29.4,27.9,00.0,38.2,31.3,22.2,0000.0,0009.30,0003.94,0002.70
2022-06-19 05:32:00,,0824.0,5.00,0.00,29.4,28.0,00.0,38.2,31.3,22.3,0000.0,0009.23,0003.92,0002.68
2022-06-19 05:33:00,,0824.0,5.00,0.00,29.4,28.2,00.0,38.2,31.3,22.3,0000.0,0009.18,0003.89,0002.64
2022-06-19 05:34:00,,0824.0,5.00,0.00,29.4,28.3,00.0,38.2,31.4,22.2,0000.0,0009.18,0003.86,0002.64
2022-06-19 05:35:00,,0823.9,5.00,0.00,29.5,28.3,00.0,38.2,31.4,22.2,0000.0,0009.14,0003.85,0002.66
2022-06-19 05:36:00,,0824.0,5.01,0.00,29.5,28.4,00.0,38.3,31.4,22.1,0000.0,0009.49,0003.90,0002.66
2022-06-19 05:37:00,,0824.0,4.99,0.00,29.5,28.5,00.0,38.3,31.4,22.1,0000.0,0010.02,0003.87,0002.67
2022-06-19 05:38:00,,0823.9,5.01,0.00,29.5,28.6,00.0,38.3,31.5,22.0,0000.0,0009.97,0003.87,0002.68
2022-06-19 05:39:00,,0824.0,5.01,0.00,29.6,28.6,00.0,38.3,31.5,22.0,0000.0,0009.63,0003.82,0002.66
2022-06-19 05:40:00,,0824.0,4.99,0.00,29.6,28.7,00.0,38.3,31.5,22.0,0000.0,0009.77,0003.84,0002.65
2022-06-19 05:41:00,,0824.0,5.00,0.00,29.6,28.2,00.0,38.3,31.4,22.0,0000.0,0009.76,0003.88,0002.62
2022-06-19 05:42:00,,0824.0,5.00,0.00,29.5,27.6,00.0,38.2,31.3,22.1,0000.0,0009.40,0003.90,0002.63
2022-06-19 05:43:00,,0823.9,5.00,0.00,29.5,27.5,00.0,38.2,31.3,22.1,0000.0,0009.39,0003.91,0002.63
2022-06-19 05:44:00,,0823.8,5.00,0.00,29.4,27.5,00.0,38.2,31.2,22.2,0000.0,0009.29,0003.90,0002.63
2022-06-19 05:45:00,,0823.9,5.01,0.00,29.4,27.6,00.0,38.2,31.2,22.2,0000.0,0009.21,0003.90,0002.62
2022-06-19 05:46:00,,0823.8,4.99,0.00,29.4,27.8,00.0,38.2,31.2,22.3,0000.0,0009.20,0003.91,0002.63
2022-06-19 05:47:00,,0823.8,4.99,0.00,29.4,27.9,00.0,38.2,31.3,22.3,0000.0,0009.03,0003.90,0002.61
2022-06-19 05:48:00,,0823.7,5.00,0.00,29.4,28.0,00.0,38.2,31.3,22.4,0000.0,0008.13,0003.87,0002.60
2022-06-19 05:49:00,,0823.7,5.01,0.00,29.4,28.1,00.0,38.2,31.3,22.3,0000.0,0008.71,0003.87,0002.60
2022-06-19 05:50:00,,0823.7,5.00,0.00,29.4,28.2,00.0,38.3,31.4,22.3,0000.0,0008.88,0003.94,0002.63
2022-06-19 05:51:00,,0823.7,5.00,0.00,29.5,28.3,00.0,38.3,31.4,22.3,0000.0,0008.88,0003.96,0002.63
2022-06-19 05:52:00,,0823.7,4.99,0.00,29.5,28.4,00.0,38.3,31.4,22.4,0000.0,0008.92,0003.98,0002.64
2022-06-19 05:53:00,,0823.7,5.00,0.00,29.5,28.5,00.0,38.3,31.5,22.3,0000.0,0009.01,0004.00,0002.63
2022-06-19 05:54:00,,0823.8,4.99,0.00,29.5,28.6,00.0,38.3,31.5,22.4,0000.0,0009.21,0004.07,0002.64
2022-06-19 05:55:00,,0823.8,5.01,0.00,29.6,28.4,00.0,38.3,31.5,22.3,0000.0,0009.33,0004.10,0002.65
2022-06-19 05:56:00,,0823.7,5.00,0.00,29.5,27.7,00.0,38.2,31.3,22.4,0000.0,0009.45,0004.14,0002.66
2022-06-19 05:57:00,,0823.7,5.00,0.00,29.5,27.5,00.0,38.2,31.2,22.5,0000.0,0009.34,0004.10,0002.67
2022-06-19 05:58:00,,0823.8,5.00,0.00,29.4,27.5,00.0,38.2,31.2,22.6,0000.0,0009.27,0004.08,0002.68
2022-06-19 05:59:00,,0823.8,5.00,0.00,29.4,27.6,00.0,38.2,31.2,22.6,0000.0,0009.09,0004.04,0002.68
